Location: Wien
(48.2082°N, 16.3738°E)
Time: 15:43:10
(UTC+02:00)

MOZHAYETS 4 - Pass Details

Date: 30 March 2019
Orbit: 663 x 679 km, 98.0° (Epoch: 25 April)

Event Time Altitude Azimuth Distance (km) Brightness Sun altitude
Exits shadow 03:02:14 12° 317° (NW) 1,969 10.1 -24.7°
Drops below altitude 10° 03:02:42 10° 321° (NW) 2,115 10.3 -24.6°
Sets 03:05:21 0° 335° (NNW) 3,038 11.3 -24.2°
